AAL1776 KMCO-KPHF

Flight info

Callsign AAL1776
Flight time 1h 25m
Altitude 35000
Route FATHE3 VIYAP Q87 JROSS Q135 RREGG CVI DRONE DRONE2
Aircraft B77W/H-SDE1E2E3FGHIJ2J3J4J5M1RWXY/LB1D1

Departure

Time 2026-04-19 23:10
Airport Orlando International Airport (KMCO)

Arrival

Time 2026-04-20 00:36
Airport Newport News Williamsburg International Airport (KPHF)
Time Latitude Longitude Altitude Speed Heading
2026-04-19 21:58 28.43383 -81.31646 107 ft 0 kts 92°
2026-04-19 22:54 28.43383 -81.31644 107 ft 4 kts 86°
2026-04-19 22:55 28.43381 -81.31667 105 ft 4 kts 104°
2026-04-19 22:55 28.43384 -81.31678 105 ft 4 kts 155°
2026-04-19 22:55 28.43405 -81.31683 105 ft 4 kts 182°
2026-04-19 22:55 28.43429 -81.31680 106 ft 1 kts 192°
2026-04-19 22:56 28.43430 -81.31680 106 ft 7 kts 192°
2026-04-19 22:57 28.43429 -81.31680 106 ft 0 kts 192°
2026-04-19 22:58 28.43425 -81.31681 106 ft 0 kts 192°
2026-04-19 22:58 28.43421 -81.31682 105 ft 4 kts 192°
2026-04-19 22:58 28.43331 -81.31707 107 ft 13 kts 198°
2026-04-19 22:59 28.43259 -81.31758 107 ft 12 kts 229°
2026-04-19 22:59 28.43210 -81.31840 106 ft 13 kts 235°
2026-04-19 22:59 28.43163 -81.31924 107 ft 13 kts 238°
2026-04-19 22:59 28.43090 -81.31976 107 ft 13 kts 200°
2026-04-19 23:00 28.43002 -81.31986 107 ft 13 kts 181°
2026-04-19 23:00 28.42913 -81.31987 108 ft 13 kts 180°
2026-04-19 23:00 28.42824 -81.31987 109 ft 13 kts 180°
2026-04-19 23:00 28.42734 -81.31988 111 ft 13 kts 180°
2026-04-19 23:01 28.42645 -81.31987 111 ft 13 kts 180°
2026-04-19 23:01 28.42556 -81.31987 112 ft 13 kts 180°
2026-04-19 23:01 28.42474 -81.31986 111 ft 10 kts 179°
2026-04-19 23:01 28.42406 -81.31984 111 ft 10 kts 173°
2026-04-19 23:02 28.42357 -81.31935 110 ft 10 kts 111°
2026-04-19 23:02 28.42348 -81.31850 112 ft 12 kts 92°
2026-04-19 23:02 28.42349 -81.31748 109 ft 14 kts 90°
2026-04-19 23:02 28.42350 -81.31626 107 ft 17 kts 89°
2026-04-19 23:03 28.42351 -81.31486 104 ft 19 kts 89°
2026-04-19 23:03 28.42349 -81.31327 101 ft 22 kts 93°
2026-04-19 23:03 28.42336 -81.31165 100 ft 20 kts 97°
2026-04-19 23:03 28.42320 -81.31005 98 ft 20 kts 92°
2026-04-19 23:04 28.42327 -81.30846 101 ft 20 kts 85°
2026-04-19 23:04 28.42338 -81.30686 111 ft 20 kts 86°
2026-04-19 23:04 28.42346 -81.30523 110 ft 21 kts 85°
2026-04-19 23:04 28.42357 -81.30345 105 ft 24 kts 88°
2026-04-19 23:05 28.42361 -81.30175 108 ft 16 kts 89°
2026-04-19 23:05 28.42363 -81.30049 108 ft 16 kts 89°
2026-04-19 23:05 28.42365 -81.29926 108 ft 15 kts 89°
2026-04-19 23:05 28.42366 -81.29810 107 ft 15 kts 89°
2026-04-19 23:06 28.42322 -81.29713 107 ft 15 kts 154°
2026-04-19 23:06 28.42215 -81.29697 107 ft 16 kts 178°
2026-04-19 23:06 28.42104 -81.29696 107 ft 16 kts 179°
2026-04-19 23:06 28.41993 -81.29695 108 ft 16 kts 180°
2026-04-19 23:07 28.41883 -81.29693 107 ft 16 kts 179°
2026-04-19 23:07 28.41772 -81.29692 107 ft 16 kts 179°
2026-04-19 23:07 28.41661 -81.29692 109 ft 16 kts 180°
2026-04-19 23:07 28.41551 -81.29691 109 ft 16 kts 179°
2026-04-19 23:08 28.41421 -81.29689 107 ft 26 kts 179°
2026-04-19 23:08 28.41260 -81.29688 106 ft 14 kts 179°
2026-04-19 23:08 28.41165 -81.29687 107 ft 14 kts 179°
2026-04-19 23:08 28.41014 -81.29685 105 ft 26 kts 180°
2026-04-19 23:09 28.40901 -81.29684 104 ft 11 kts 179°
2026-04-19 23:09 28.40833 -81.29626 106 ft 18 kts 99°
2026-04-19 23:09 28.40877 -81.29564 104 ft 9 kts
2026-04-19 23:09 28.40893 -81.29564 105 ft 0 kts
2026-04-19 23:10 28.40938 -81.29561 103 ft 35 kts
2026-04-19 23:10 28.41608 -81.29576 110 ft 158 kts 358°
2026-04-19 23:10 28.42980 -81.29645 827 ft 217 kts 355°
2026-04-19 23:11 28.44541 -81.29696 2482 ft 230 kts
2026-04-19 23:11 28.46043 -81.29047 4236 ft 235 kts 30°
2026-04-19 23:11 28.47459 -81.28057 5764 ft 244 kts 29°
2026-04-19 23:11 28.48956 -81.27039 7075 ft 258 kts 29°
2026-04-19 23:12 28.50535 -81.25977 8299 ft 267 kts 28°
2026-04-19 23:12 28.52280 -81.25240 9255 ft 271 kts
2026-04-19 23:12 28.54186 -81.25100 10187 ft 279 kts
2026-04-19 23:12 28.56177 -81.25066 10965 ft 294 kts 356°
2026-04-19 23:13 28.58229 -81.25167 11808 ft 306 kts 354°
2026-04-19 23:13 28.60433 -81.25419 12323 ft 332 kts 351°
2026-04-19 23:13 28.62826 -81.25781 12789 ft 357 kts 351°
2026-04-19 23:13 28.65351 -81.26172 13731 ft 366 kts 351°
2026-04-19 23:14 28.67869 -81.26550 14664 ft 372 kts 351°
2026-04-19 23:14 28.70442 -81.26925 15609 ft 376 kts 351°
2026-04-19 23:14 28.73068 -81.27298 16526 ft 382 kts 351°
2026-04-19 23:14 28.75733 -81.27672 17402 ft 389 kts 351°
2026-04-19 23:15 28.78437 -81.28050 18275 ft 395 kts 350°
2026-04-19 23:15 28.81180 -81.28433 19024 ft 400 kts 350°
2026-04-19 23:15 28.83949 -81.28820 19837 ft 403 kts 350°
2026-04-19 23:15 28.86756 -81.29142 20672 ft 406 kts 352°
2026-04-19 23:16 28.89583 -81.29364 21449 ft 410 kts 353°
2026-04-19 23:16 28.91514 -81.29503 21961 ft 413 kts 353°
2026-04-19 23:16 28.94399 -81.29722 22676 ft 417 kts 352°
2026-04-19 23:16 28.97307 -81.29963 23396 ft 421 kts 352°
2026-04-19 23:17 29.00237 -81.30224 24021 ft 424 kts 351°
2026-04-19 23:17 29.03188 -81.30549 24630 ft 426 kts 350°
2026-04-19 23:17 29.06145 -81.30894 25252 ft 428 kts 350°
2026-04-19 23:17 29.09078 -81.31230 25851 ft 430 kts 350°
2026-04-19 23:18 29.12073 -81.31551 26429 ft 434 kts 351°
2026-04-19 23:18 29.15101 -81.31773 26969 ft 438 kts 352°
2026-04-19 23:18 29.18163 -81.31942 27375 ft 445 kts 352°
2026-04-19 23:18 29.21304 -81.32103 27443 ft 458 kts 352°
2026-04-19 23:19 29.24527 -81.32273 27574 ft 468 kts 352°
2026-04-19 23:19 29.27807 -81.32452 27852 ft 474 kts 352°
2026-04-19 23:19 29.31105 -81.32640 28298 ft 475 kts 352°
2026-04-19 23:19 29.34409 -81.32832 28781 ft 476 kts 352°
2026-04-19 23:20 29.37719 -81.33029 29194 ft 477 kts 352°
2026-04-19 23:20 29.41043 -81.33230 29534 ft 480 kts 352°
2026-04-19 23:20 29.44394 -81.33434 29840 ft 482 kts 352°
2026-04-19 23:20 29.47756 -81.33638 30136 ft 484 kts 351°
2026-04-19 23:21 29.51125 -81.33841 30449 ft 485 kts 351°
2026-04-19 23:21 29.54479 -81.34042 30893 ft 481 kts 351°
2026-04-19 23:21 29.57818 -81.34242 31393 ft 478 kts 351°
2026-04-19 23:21 29.61126 -81.34441 31867 ft 475 kts 351°
2026-04-19 23:22 29.64415 -81.34641 32269 ft 473 kts 351°
2026-04-19 23:22 29.67701 -81.34835 32656 ft 472 kts 351°
2026-04-19 23:22 29.70974 -81.35022 33067 ft 470 kts 351°
2026-04-19 23:22 29.74238 -81.35206 33480 ft 468 kts 350°
2026-04-19 23:23 29.77484 -81.35389 33874 ft 467 kts 350°
2026-04-19 23:23 29.80728 -81.35573 34225 ft 465 kts 350°
2026-04-19 23:23 29.83951 -81.35757 34554 ft 464 kts 350°
2026-04-19 23:23 29.87175 -81.35942 34868 ft 462 kts 349°
2026-04-19 23:24 29.90394 -81.36129 34996 ft 466 kts 349°
2026-04-19 23:24 29.93645 -81.36319 35029 ft 468 kts 349°
2026-04-19 23:24 30.00077 -81.36688 35069 ft 463 kts 349°
2026-04-19 23:25 30.06494 -81.37055 35075 ft 461 kts 349°
2026-04-19 23:25 30.12899 -81.37426 35074 ft 460 kts 349°
2026-04-19 23:26 30.19305 -81.37798 35072 ft 461 kts 349°
2026-04-19 23:26 30.25716 -81.38170 35087 ft 462 kts 349°
2026-04-19 23:27 30.32161 -81.38544 35070 ft 464 kts 349°
2026-04-19 23:27 30.38584 -81.38916 35089 ft 465 kts 349°
2026-04-19 23:28 30.45062 -81.39292 35083 ft 467 kts 349°
2026-04-19 23:28 30.51569 -81.39653 35112 ft 468 kts 349°
2026-04-19 23:29 30.58086 -81.39996 35109 ft 469 kts 349°
2026-04-19 23:29 30.64602 -81.40340 35112 ft 469 kts 349°
2026-04-19 23:30 30.71132 -81.40688 35242 ft 474 kts 347°
2026-04-19 23:30 30.77775 -81.41056 35161 ft 486 kts 347°
2026-04-19 23:31 30.84575 -81.41417 35097 ft 486 kts 347°
2026-04-19 23:31 30.91323 -81.41771 35091 ft 484 kts 347°
2026-04-19 23:32 30.98007 -81.42128 35098 ft 483 kts 347°
2026-04-19 23:32 31.04701 -81.42490 35105 ft 481 kts 347°
2026-04-19 23:33 31.11382 -81.42852 35108 ft 480 kts 347°
2026-04-19 23:33 31.18055 -81.43213 35107 ft 479 kts 347°
2026-04-19 23:34 31.24740 -81.43376 35114 ft 490 kts 357°
2026-04-19 23:34 31.28107 -81.42362 35119 ft 513 kts 14°
2026-04-19 23:34 31.31360 -81.40588 35141 ft 518 kts 17°
2026-04-19 23:35 31.37848 -81.36842 35121 ft 521 kts 17°
2026-04-19 23:35 31.44389 -81.33175 35111 ft 517 kts 16°
2026-04-19 23:36 31.50812 -81.29672 35094 ft 509 kts 15°
2026-04-19 23:36 31.57241 -81.26187 35094 ft 510 kts 15°
2026-04-19 23:37 31.63682 -81.22674 35090 ft 511 kts 16°
2026-04-19 23:37 31.70124 -81.19151 35090 ft 512 kts 16°
2026-04-19 23:38 31.76585 -81.15615 35080 ft 513 kts 16°
2026-04-19 23:38 31.83060 -81.12064 35078 ft 511 kts 16°
2026-04-19 23:39 31.89373 -81.08584 35063 ft 493 kts 16°
2026-04-19 23:39 31.95587 -81.05175 35088 ft 492 kts 16°
2026-04-19 23:40 32.01803 -81.01753 35084 ft 494 kts 16°
2026-04-19 23:40 32.08044 -80.98269 35086 ft 497 kts 16°
2026-04-19 23:41 32.14256 -80.94783 35089 ft 499 kts 17°
2026-04-19 23:41 32.20529 -80.91260 35109 ft 499 kts 17°
2026-04-19 23:42 32.26812 -80.87730 35107 ft 499 kts 17°
2026-04-19 23:42 32.33078 -80.84206 35109 ft 498 kts 17°
2026-04-19 23:43 32.39340 -80.80678 35103 ft 498 kts 17°
2026-04-19 23:43 32.45585 -80.77154 35112 ft 497 kts 17°
2026-04-19 23:44 32.51820 -80.73632 35112 ft 496 kts 17°
2026-04-19 23:44 32.58050 -80.70105 35111 ft 496 kts 17°
2026-04-19 23:45 32.64245 -80.66594 35115 ft 497 kts 17°
2026-04-19 23:45 32.70323 -80.62514 35138 ft 510 kts 29°
2026-04-19 23:46 32.75664 -80.56824 35149 ft 524 kts 43°
2026-04-19 23:46 32.80462 -80.50263 35158 ft 527 kts 44°
2026-04-19 23:47 32.85235 -80.43631 35153 ft 529 kts 44°
2026-04-19 23:47 32.90064 -80.37017 35126 ft 530 kts 44°
2026-04-19 23:48 32.94933 -80.30401 35124 ft 531 kts 44°
2026-04-19 23:48 32.99798 -80.23786 35124 ft 531 kts 44°
2026-04-19 23:49 33.04664 -80.17149 35122 ft 531 kts 44°
2026-04-19 23:49 33.09485 -80.10557 35132 ft 531 kts 44°
2026-04-19 23:50 33.14326 -80.03925 35122 ft 530 kts 44°
2026-04-19 23:50 33.19174 -79.97273 35133 ft 530 kts 44°
2026-04-19 23:51 33.24007 -79.90630 35129 ft 529 kts 44°
2026-04-19 23:51 33.28828 -79.83989 35126 ft 529 kts 44°
2026-04-19 23:52 33.33644 -79.77344 35116 ft 529 kts 44°
2026-04-19 23:52 33.38467 -79.70680 35117 ft 529 kts 45°
2026-04-19 23:53 33.43284 -79.64011 35117 ft 530 kts 45°
2026-04-19 23:53 33.48109 -79.57318 35121 ft 531 kts 45°
2026-04-19 23:54 33.52946 -79.50594 35124 ft 533 kts 45°
2026-04-19 23:54 33.57754 -79.43897 35124 ft 534 kts 45°
2026-04-19 23:55 33.62604 -79.37128 35128 ft 535 kts 45°
2026-04-19 23:55 33.67457 -79.30344 35131 ft 536 kts 45°
2026-04-19 23:56 33.72321 -79.23537 35136 ft 536 kts 45°
2026-04-19 23:56 33.77176 -79.16730 35141 ft 536 kts 46°
2026-04-19 23:57 33.82029 -79.09912 35135 ft 537 kts 46°
2026-04-19 23:57 33.86875 -79.03087 35140 ft 537 kts 46°
2026-04-19 23:58 33.91723 -78.96249 35134 ft 536 kts 46°
2026-04-19 23:58 33.96535 -78.89448 35114 ft 536 kts 46°
2026-04-19 23:59 34.01371 -78.82600 35113 ft 536 kts 46°
2026-04-19 23:59 34.06206 -78.75740 35126 ft 536 kts 46°
2026-04-20 00:00 34.11032 -78.68879 35133 ft 536 kts 46°
2026-04-20 00:00 34.15854 -78.62011 35134 ft 536 kts 46°
2026-04-20 00:01 34.20673 -78.55133 35134 ft 536 kts 46°
2026-04-20 00:02 34.28219 -78.45276 35135 ft 531 kts 37°
2026-04-20 00:02 34.33791 -78.39405 35135 ft 532 kts 36°
2026-04-20 00:03 34.39380 -78.33542 35124 ft 533 kts 36°
2026-04-20 00:03 34.44957 -78.27601 35125 ft 534 kts 36°
2026-04-20 00:04 34.50514 -78.21628 35125 ft 534 kts 36°
2026-04-20 00:04 34.55138 -78.16649 35131 ft 535 kts 36°
2026-04-20 00:05 34.60703 -78.10652 35133 ft 535 kts 36°
2026-04-20 00:05 34.66265 -78.04651 35140 ft 534 kts 37°
2026-04-20 00:06 34.71823 -77.98643 35148 ft 534 kts 37°
2026-04-20 00:06 34.77375 -77.92630 35136 ft 534 kts 37°
2026-04-20 00:07 34.82923 -77.86608 35141 ft 534 kts 37°
2026-04-20 00:07 34.88478 -77.80599 35152 ft 534 kts 36°
2026-04-20 00:08 34.94138 -77.74754 35152 ft 533 kts 35°
2026-04-20 00:08 34.99828 -77.68923 35154 ft 534 kts 36°
2026-04-20 00:09 35.05461 -77.63085 35149 ft 535 kts 36°
2026-04-20 00:09 35.11135 -77.57200 35145 ft 535 kts 34°
2026-04-20 00:10 35.17217 -77.52116 35139 ft 526 kts 22°
2026-04-20 00:10 35.23666 -77.48141 35028 ft 510 kts 19°
2026-04-20 00:10 35.26828 -77.46237 34621 ft 506 kts 19°
2026-04-20 00:11 35.30006 -77.44323 33871 ft 511 kts 19°
2026-04-20 00:11 35.33221 -77.42374 32990 ft 517 kts 20°
2026-04-20 00:11 35.36451 -77.40400 32181 ft 522 kts 21°
2026-04-20 00:11 35.39702 -77.38396 31414 ft 525 kts 21°
2026-04-20 00:12 35.42975 -77.36367 30658 ft 528 kts 21°
2026-04-20 00:12 35.46262 -77.34323 29896 ft 530 kts 21°
2026-04-20 00:12 35.49541 -77.32280 29130 ft 531 kts 21°
2026-04-20 00:12 35.52847 -77.30219 28447 ft 529 kts 21°
2026-04-20 00:13 35.56118 -77.28179 27763 ft 527 kts 21°
2026-04-20 00:13 35.59380 -77.26145 27174 ft 523 kts 21°
2026-04-20 00:13 35.62590 -77.24138 27048 ft 509 kts 21°
2026-04-20 00:13 35.65699 -77.22190 26956 ft 495 kts 21°
2026-04-20 00:14 35.68720 -77.20297 26867 ft 481 kts 21°
2026-04-20 00:14 35.71668 -77.18452 26752 ft 470 kts 21°
2026-04-20 00:14 35.74519 -77.16669 26578 ft 461 kts 20°
2026-04-20 00:14 35.77359 -77.14894 26283 ft 455 kts 20°
2026-04-20 00:15 35.80173 -77.13137 25886 ft 452 kts 20°
2026-04-20 00:15 35.82938 -77.11411 25482 ft 450 kts 20°
2026-04-20 00:15 35.85715 -77.09673 25102 ft 447 kts 20°
2026-04-20 00:15 35.88486 -77.07935 24747 ft 444 kts 20°
2026-04-20 00:16 35.91232 -77.06210 24390 ft 441 kts 20°
2026-04-20 00:16 35.93956 -77.04497 24032 ft 438 kts 20°
2026-04-20 00:16 35.96662 -77.02794 23672 ft 435 kts 20°
2026-04-20 00:16 35.99352 -77.01100 23254 ft 433 kts 20°
2026-04-20 00:17 36.02023 -76.99416 22884 ft 429 kts 20°
2026-04-20 00:17 36.04653 -76.97755 22706 ft 420 kts 20°
2026-04-20 00:17 36.07227 -76.96125 22548 ft 411 kts 20°
2026-04-20 00:17 36.09741 -76.94534 22382 ft 402 kts 20°
2026-04-20 00:18 36.12215 -76.92969 22126 ft 396 kts 20°
2026-04-20 00:18 36.14660 -76.91424 21788 ft 394 kts 20°
2026-04-20 00:18 36.17099 -76.89884 21417 ft 393 kts 20°
2026-04-20 00:18 36.19524 -76.88351 21065 ft 391 kts 20°
2026-04-20 00:19 36.21938 -76.86822 20746 ft 388 kts 20°
2026-04-20 00:19 36.24328 -76.85307 20426 ft 385 kts 20°
2026-04-20 00:19 36.26705 -76.83797 20117 ft 382 kts 20°
2026-04-20 00:19 36.29065 -76.82298 19780 ft 380 kts 20°
2026-04-20 00:20 36.31415 -76.80805 19437 ft 378 kts 20°
2026-04-20 00:20 36.33745 -76.79322 19123 ft 375 kts 20°
2026-04-20 00:20 36.36031 -76.77867 18810 ft 373 kts 20°
2026-04-20 00:20 36.38337 -76.76399 18484 ft 370 kts 20°
2026-04-20 00:21 36.40622 -76.74942 18158 ft 368 kts 20°
2026-04-20 00:21 36.42794 -76.73288 17712 ft 372 kts 38°
2026-04-20 00:21 36.44433 -76.70773 17291 ft 376 kts 49°
2026-04-20 00:21 36.46310 -76.68537 17146 ft 372 kts 28°
2026-04-20 00:22 36.48462 -76.66821 17052 ft 362 kts 21°
2026-04-20 00:22 36.50762 -76.65882 16639 ft 336 kts 353°
2026-04-20 00:22 36.52902 -76.66354 16506 ft 294 kts 322°
2026-04-20 00:22 36.54488 -76.67699 16406 ft 267 kts 318°
2026-04-20 00:23 36.56292 -76.68399 16128 ft 286 kts 351°
2026-04-20 00:23 36.58249 -76.68280 15817 ft 273 kts 345°
2026-04-20 00:23 36.60066 -76.68591 15464 ft 262 kts 337°
2026-04-20 00:23 36.61825 -76.69062 15225 ft 255 kts 336°
2026-04-20 00:24 36.63553 -76.69545 14855 ft 255 kts 336°
2026-04-20 00:24 36.65294 -76.70025 14453 ft 257 kts 337°
2026-04-20 00:24 36.67038 -76.70490 14144 ft 255 kts 338°
2026-04-20 00:24 36.68765 -76.70939 13809 ft 253 kts 338°
2026-04-20 00:25 36.70483 -76.71379 13463 ft 251 kts 338°
2026-04-20 00:25 36.72189 -76.71811 13101 ft 249 kts 339°
2026-04-20 00:25 36.73886 -76.72238 12761 ft 247 kts 339°
2026-04-20 00:25 36.75565 -76.72658 12425 ft 245 kts 339°
2026-04-20 00:26 36.77232 -76.73073 12120 ft 242 kts 339°
2026-04-20 00:26 36.78878 -76.73482 11778 ft 240 kts 339°
2026-04-20 00:26 36.80487 -76.73884 11434 ft 240 kts 339°
2026-04-20 00:26 36.82139 -76.74294 11087 ft 239 kts 339°
2026-04-20 00:27 36.83764 -76.74701 10677 ft 241 kts 340°
2026-04-20 00:27 36.85360 -76.75092 10612 ft 226 kts 339°
2026-04-20 00:27 36.86847 -76.75455 10492 ft 211 kts 339°
2026-04-20 00:27 36.88244 -76.75799 10201 ft 198 kts 338°
2026-04-20 00:28 36.89563 -76.76129 9694 ft 191 kts 338°
2026-04-20 00:28 36.90853 -76.76453 9153 ft 186 kts 339°
2026-04-20 00:28 36.92108 -76.76767 8598 ft 182 kts 340°
2026-04-20 00:28 36.93338 -76.77074 8054 ft 179 kts 341°
2026-04-20 00:29 36.94547 -76.77376 7518 ft 175 kts 342°
2026-04-20 00:29 36.95741 -76.77675 7056 ft 174 kts 343°
2026-04-20 00:29 36.96938 -76.77686 6668 ft 176 kts
2026-04-20 00:29 36.98096 -76.77165 6295 ft 174 kts 11°
2026-04-20 00:30 36.99215 -76.76639 5800 ft 178 kts 30°
2026-04-20 00:30 37.00005 -76.75448 5486 ft 182 kts 53°
2026-04-20 00:30 37.00539 -76.74002 5083 ft 184 kts 57°
2026-04-20 00:30 37.01077 -76.72541 4621 ft 185 kts 56°
2026-04-20 00:31 37.01673 -76.71129 4153 ft 180 kts 52°
2026-04-20 00:31 37.02270 -76.69834 3827 ft 167 kts 51°
2026-04-20 00:31 37.02880 -76.68591 3581 ft 170 kts 51°
2026-04-20 00:31 37.03475 -76.67376 3586 ft 161 kts 51°
2026-04-20 00:32 37.04047 -76.66209 3376 ft 154 kts 50°
2026-04-20 00:32 37.04601 -76.65077 3116 ft 149 kts 51°
2026-04-20 00:32 37.05179 -76.63971 2790 ft 156 kts 50°
2026-04-20 00:32 37.05783 -76.62861 2583 ft 153 kts 50°
2026-04-20 00:33 37.06376 -76.61758 2399 ft 154 kts 51°
2026-04-20 00:33 37.06963 -76.60631 2256 ft 156 kts 52°
2026-04-20 00:33 37.07563 -76.59466 2036 ft 161 kts 51°
2026-04-20 00:33 37.08200 -76.58298 1876 ft 163 kts 51°
2026-04-20 00:34 37.08844 -76.57153 1660 ft 161 kts 51°
2026-04-20 00:34 37.09484 -76.56022 1243 ft 160 kts 52°
2026-04-20 00:34 37.10108 -76.54857 976 ft 162 kts 55°
2026-04-20 00:34 37.10710 -76.53656 675 ft 163 kts 57°
2026-04-20 00:35 37.11298 -76.52489 416 ft 154 kts 57°
2026-04-20 00:35 37.11857 -76.51378 258 ft 148 kts 58°
2026-04-20 00:35 37.12402 -76.50319 118 ft 138 kts 57°
2026-04-20 00:35 37.12872 -76.49393 46 ft 112 kts 56°
2026-04-20 00:36 37.13194 -76.48764 48 ft 59 kts 58°
2026-04-20 00:36 37.13339 -76.48481 47 ft 32 kts 57°